This is the latest recevied weather packets stored in our database for station/object K0QJ. If no packets are shown the sender has not sent any weather packets the latest 10 day(s).
| Time | Temp. | Humidity | Pressure | Rain* | Wind** | Luminosity | Snow |
|---|---|---|---|---|---|---|---|
| 1777424864 | 14.44° C | 70% | 1013.6 hPa | 0 mm | - | 1 W/m² | - |
| 1777424560 | 14.44° C | 70% | 1013.5 hPa | 0 mm | - | 2 W/m² | - |
| 1777424255 | 15° C | 70% | 1013.7 hPa | 0 mm | - | 4 W/m² | - |
| 1777423952 | 15° C | 71% | 1013.4 hPa | 0 mm | - | 5 W/m² | - |
| 1777423648 | 15° C | 71% | 1013.2 hPa | 0 mm | - | 7 W/m² | - |
| 1777423344 | 15° C | 70% | 1013.1 hPa | 0 mm | - | 10 W/m² | - |
| 1777423040 | 15° C | 69% | 1013.1 hPa | 0 mm | - | 12 W/m² | - |
| 1777422736 | 15° C | 69% | 1013.2 hPa | 0 mm | - | 16 W/m² | - |
| 1777422435 | 15° C | 69% | 1013.1 hPa | 0 mm | - | 17 W/m² | - |
| 1777422131 | 15° C | 68% | 1012.9 hPa | 0 mm | - | 26 W/m² | - |
| 1777421830 | 15.56° C | 68% | 1012.8 hPa | 0 mm | - | 26 W/m² | - |
| 1777421526 | 15.56° C | 70% | 1012.8 hPa | 0 mm | - | 35 W/m² | - |
| 1777421222 | 15° C | 71% | 1012.8 hPa | 0 mm | - | 44 W/m² | - |
| 1777420918 | 15° C | 72% | 1012.8 hPa | 0 mm | - | 42 W/m² | - |
| 1777420615 | 15° C | 72% | 1012.5 hPa | 0 mm | - | 49 W/m² | - |
| 1777420311 | 15° C | 73% | 1012.4 hPa | 0 mm | - | 41 W/m² | - |
| 1777420007 | 15° C | 73% | 1012.3 hPa | 0 mm | - | 46 W/m² | - |
| 1777419703 | 14.44° C | 73% | 1012.4 hPa | 0 mm | - | 57 W/m² | - |
| 1777419401 | 14.44° C | 73% | 1012.5 hPa | 0 mm | - | 60 W/m² | - |
| 1777419096 | 14.44° C | 73% | 1012.3 hPa | 0 mm | - | 65 W/m² | - |
| 1777418795 | 14.44° C | 73% | 1012.4 hPa | 0 mm | - | 63 W/m² | - |
| 1777418492 | 14.44° C | 73% | 1012.4 hPa | 0 mm | - | 49 W/m² | - |
| 1777418188 | 14.44° C | 73% | 1012.4 hPa | 0 mm | - | 45 W/m² | - |
| 1777417884 | 14.44° C | 72% | 1012.4 hPa | 0 mm | - | 57 W/m² | - |
| 1777417581 | 14.44° C | 72% | 1012.4 hPa | 0 mm | - | 71 W/m² | - |
* Rain latest hour (hover to see other rain measurements)
** Current wind speed in m/s (hover to see current wind gust speed)